Satellite: TACSAT-3
Catalog number: 35001
Epoch time:      10048.88124709
Element set:     218
Inclination:      040.4499 deg
RA of node:       210.0830 deg
Eccentricity:    0.0020998
Arg of perigee:   194.7732 deg
Mean anomaly:     165.2471 deg
Mean motion:   15.40345211 rev/day
Decay rate:     1.0021e-04 rev/day^2
Epoch rev:            4222
Checksum:              254

Satellite: PHARMSAT
Catalog number: 35002
Epoch time:      10047.84331917
Element set:    0207
Inclination:      040.4681 deg
RA of node:       214.7966 deg
Eccentricity:    0.0024428
Arg of perigee:   190.4687 deg
Mean anomaly:     169.5622 deg
Mean motion:   15.40984345 rev/day
Decay rate:      8.335e-05 rev/day^2
Epoch rev:           04207
Checksum:              294

Satellite: HAWKSAT1
Catalog number: 35003
Epoch time:      10047.81588178
Element set:    0217
Inclination:      040.4535 deg
RA of node:       212.5732 deg
Eccentricity:    0.0022272
Arg of perigee:   198.7926 deg
Mean anomaly:     161.2059 deg
Mean motion:   15.42690860 rev/day
Decay rate:     1.7116e-04 rev/day^2
Epoch rev:           04210
Checksum:              275

Satellite: CP6
Catalog number: 35004
Epoch time:      10049.80212023
Element set:     210
Inclination:      040.4609 deg
RA of node:       200.3611 deg
Eccentricity:    0.0023764
Arg of perigee:   212.0164 deg
Mean anomaly:     147.9207 deg
Mean motion:   15.43139174 rev/day
Decay rate:     2.0625e-04 rev/day^2
Epoch rev:            4240
Checksum:              227

Satellite: AEROCUB3
Catalog number: 35005
Epoch time:      10049.82066540
Element set:     223
Inclination:      040.4736 deg
RA of node:       200.8041 deg
Eccentricity:    0.0023580
Arg of perigee:   212.3155 deg
Mean anomaly:     147.6216 deg
Mean motion:   15.43980962 rev/day
Decay rate:     3.9061e-04 rev/day^2
Epoch rev:            4240
Checksum:              254

Satellite: DRAGNSAT
Catalog number: 35690
Epoch time:      10049.14740193
Element set:     263
Inclination:      051.6333 deg
RA of node:       102.6667 deg
Eccentricity:    0.0005994
Arg of perigee:   041.2731 deg
Mean anomaly:     318.8665 deg
Mean motion:   16.02690791 rev/day
Decay rate:    2.72385e-03 rev/day^2
Epoch rev:            3219
Checksum:              297

Satellite: POLLUX
Catalog number: 35693
Epoch time:      10049.50004425
Element set:     263
Inclination:      051.6324 deg
RA of node:       102.8400 deg
Eccentricity:    0.0004271
Arg of perigee:   046.9757 deg
Mean anomaly:     313.2143 deg
Mean motion:   15.98718823 rev/day
Decay rate:    1.79327e-03 rev/day^2
Epoch rev:            3219
Checksum:              278

Satellite: CASTOR
Catalog number: 35694
Epoch time:      10049.49369013
Element set:     197
Inclination:      051.6368 deg
RA of node:       108.2170 deg
Eccentricity:    0.0004247
Arg of perigee:   078.3344 deg
Mean anomaly:     281.8663 deg
Mean motion:   15.87599985 rev/day
Decay rate:     5.1871e-04 rev/day^2
Epoch rev:            3212
Checksum:              324

Satellite: METEOR-M
Catalog number: 35865
Epoch time:      10049.27649095
Element set:     130
Inclination:      098.7760 deg
RA of node:       103.8386 deg
Eccentricity:    0.0002453
Arg of perigee:   009.7993 deg
Mean anomaly:     350.3228 deg
Mean motion:   14.21828712 rev/day
Decay rate:       1.76e-06 rev/day^2
Epoch rev:            2182
Checksum:              300

Satellite: RS-38
Catalog number: 35869
Epoch time:      10049.11980035
Element set:     132
Inclination:      098.7752 deg
RA of node:       103.7039 deg
Eccentricity:    0.0004557
Arg of perigee:   000.8425 deg
Mean anomaly:     359.2730 deg
Mean motion:   14.21975474 rev/day
Decay rate:       1.76e-06 rev/day^2
Epoch rev:            2180
Checksum:              298

/EX




More information about the Keps mailing list